Météo par heure à Kingston upon Thames

Ce jour, 29 Septembre, Mardi

Heure Température Précipitation Vent Pression Humidité
00:00 +16°C° 0 mm 1 m/s 759 mmHg 95%
01:00 +16°C° 0.2 mm 1 m/s 758 mmHg 95%
02:00 +16°C° 0.2 mm 1 m/s 758 mmHg 95%
03:00 +16°C° 0.2 mm 1 m/s 758 mmHg 96%
04:00 +15°C° 0 mm 1 m/s 758 mmHg 96%
05:00 +15°C° 0 mm 1 m/s 758 mmHg 96%
06:00 +16°C° 0 mm 1 m/s 759 mmHg 97%
07:00 +16°C° 0 mm 2 m/s 759 mmHg 94%
08:00 +16°C° 0 mm 2 m/s 759 mmHg 92%
09:00 +16°C° 0 mm 3 m/s 759 mmHg 90%
10:00 +16°C° 0 mm 3 m/s 759 mmHg 84%
11:00 +17°C° 0 mm 3 m/s 760 mmHg 79%
12:00 +18°C° 0 mm 3 m/s 760 mmHg 74%
13:00 +18°C° 0 mm 3 m/s 759 mmHg 68%
14:00 +19°C° 0 mm 3 m/s 759 mmHg 62%
15:00 +19°C° 0 mm 3 m/s 759 mmHg 56%
16:00 +18°C° 0 mm 2 m/s 759 mmHg 59%
17:00 +17°C° 0 mm 2 m/s 759 mmHg 62%
18:00 +16°C° 0 mm 1 m/s 759 mmHg 64%
19:00 +16°C° 0 mm 2 m/s 759 mmHg 68%
20:00 +15°C° 0 mm 2 m/s 759 mmHg 72%
21:00 +14°C° 0 mm 2 m/s 759 mmHg 76%
22:00 +13°C° 0 mm 2 m/s 759 mmHg 78%
23:00 +13°C° 0 mm 2 m/s 758 mmHg 81%

Demain, 30 Septembre, Mercredi

Heure Température Précipitation Vent Pression Humidité
00:00 +12°C° 0 mm 2 m/s 758 mmHg 83%
01:00 +12°C° 0 mm 2 m/s 758 mmHg 85%
02:00 +12°C° 0 mm 2 m/s 757 mmHg 87%
03:00 +12°C° 0 mm 2 m/s 756 mmHg 88%
04:00 +12°C° 0 mm 2 m/s 756 mmHg 88%
05:00 +10°C° 0 mm 2 m/s 756 mmHg 87%
06:00 +10°C° 0 mm 2 m/s 756 mmHg 87%
07:00 +12°C° 0 mm 3 m/s 755 mmHg 83%
08:00 +13°C° 0 mm 4 m/s 755 mmHg 79%
09:00 +15°C° 0 mm 5 m/s 754 mmHg 75%
10:00 +16°C° 0.1 mm 6 m/s 754 mmHg 73%
11:00 +16°C° 0.1 mm 6 m/s 753 mmHg 70%
12:00 +17°C° 0.1 mm 7 m/s 752 mmHg 67%
13:00 +16°C° 1.2 mm 6 m/s 751 mmHg 74%
14:00 +16°C° 1.2 mm 6 m/s 751 mmHg 81%
15:00 +15°C° 1.2 mm 6 m/s 750 mmHg 88%
16:00 +15°C° 2.2 mm 6 m/s 749 mmHg 88%
17:00 +15°C° 2.2 mm 7 m/s 749 mmHg 89%
18:00 +14°C° 2.2 mm 7 m/s 748 mmHg 89%
19:00 +14°C° 0.6 mm 6 m/s 748 mmHg 89%
20:00 +13°C° 0.6 mm 4 m/s 748 mmHg 89%
21:00 +13°C° 0.6 mm 3 m/s 748 mmHg 88%
22:00 +12°C° 0 mm 3 m/s 748 mmHg 89%
23:00 +11°C° 0 mm 3 m/s 748 mmHg 89%

Après-demain, 1 Octobre, Jeudi

Heure Température Précipitation Vent Pression Humidité
00:00 +11°C° 0 mm 3 m/s 748 mmHg 89%
01:00 +10°C° 0 mm 3 m/s 748 mmHg 89%
02:00 +10°C° 0 mm 3 m/s 748 mmHg 89%
03:00 +9°C° 0 mm 2 m/s 748 mmHg 88%
04:00 +9°C° 0 mm 3 m/s 748 mmHg 88%
05:00 +8°C° 0 mm 3 m/s 748 mmHg 87%
06:00 +8°C° 0 mm 3 m/s 748 mmHg 86%
07:00 +9°C° 0 mm 3 m/s 748 mmHg 82%
08:00 +10°C° 0 mm 3 m/s 748 mmHg 77%
09:00 +11°C° 0 mm 4 m/s 748 mmHg 73%
10:00 +12°C° 0 mm 4 m/s 748 mmHg 67%
11:00 +13°C° 0 mm 4 m/s 748 mmHg 60%
12:00 +14°C° 0 mm 4 m/s 748 mmHg 54%
13:00 +14°C° 0.1 mm 4 m/s 747 mmHg 54%
14:00 +14°C° 0.1 mm 4 m/s 747 mmHg 54%
15:00 +14°C° 0.1 mm 4 m/s 747 mmHg 54%
16:00 +13°C° 0 mm 3 m/s 746 mmHg 60%
17:00 +12°C° 0 mm 3 m/s 746 mmHg 65%
18:00 +12°C° 0 mm 2 m/s 746 mmHg 70%
19:00 +10°C° 0 mm 2 m/s 746 mmHg 71%
20:00 +10°C° 0 mm 2 m/s 745 mmHg 73%
21:00 +10°C° 0 mm 2 m/s 745 mmHg 74%
22:00 +10°C° 0.2 mm 2 m/s 744 mmHg 76%
23:00 +10°C° 0.2 mm 2 m/s 744 mmHg 78%

2 Octobre, Vendredi

Heure Température Précipitation Vent Pression Humidité
00:00 +10°C° 0.2 mm 2 m/s 743 mmHg 80%
01:00 +10°C° 0.1 mm 2 m/s 743 mmHg 80%
02:00 +10°C° 0.1 mm 3 m/s 743 mmHg 81%
03:00 +10°C° 0.1 mm 3 m/s 742 mmHg 82%
04:00 +10°C° 0 mm 3 m/s 742 mmHg 83%
05:00 +10°C° 0 mm 3 m/s 742 mmHg 83%
06:00 +8°C° 0 mm 4 m/s 742 mmHg 84%
07:00 +10°C° 0 mm 4 m/s 742 mmHg 83%
08:00 +10°C° 0 mm 5 m/s 741 mmHg 81%
09:00 +12°C° 0 mm 5 m/s 741 mmHg 79%
10:00 +12°C° 0.3 mm 5 m/s 741 mmHg 81%
11:00 +11°C° 0.3 mm 6 m/s 740 mmHg 82%
12:00 +11°C° 0.3 mm 6 m/s 740 mmHg 83%
13:00 +11°C° 0.7 mm 6 m/s 740 mmHg 85%
14:00 +11°C° 0.7 mm 6 m/s 740 mmHg 87%
15:00 +11°C° 0.7 mm 7 m/s 740 mmHg 88%
16:00 +11°C° 0.4 mm 6 m/s 740 mmHg 89%
17:00 +13°C° 0.4 mm 6 m/s 741 mmHg 89%
18:00 +13°C° 0.4 mm 6 m/s 741 mmHg 89%
19:00 +13°C° 1.3 mm 6 m/s 741 mmHg 89%
20:00 +12°C° 1.3 mm 7 m/s 741 mmHg 90%
21:00 +13°C° 1.3 mm 8 m/s 741 mmHg 90%
22:00 +14°C° 1.3 mm 7 m/s 741 mmHg 91%
23:00 +14°C° 1.3 mm 7 m/s 741 mmHg 92%

3 Octobre, Samedi

Heure Température Précipitation Vent Pression Humidité
00:00 +14°C° 1.3 mm 7 m/s 741 mmHg 92%
01:00 +14°C° 1.7 mm 7 m/s 741 mmHg 92%
02:00 +14°C° 1.7 mm 6 m/s 741 mmHg 92%
03:00 +14°C° 1.7 mm 6 m/s 741 mmHg 92%
04:00 +14°C° 3.2 mm 6 m/s 741 mmHg 93%
05:00 +13°C° 3.2 mm 5 m/s 741 mmHg 93%
06:00 +13°C° 3.2 mm 5 m/s 741 mmHg 94%
07:00 +12°C° 3.2 mm 4 m/s 741 mmHg 93%
08:00 +12°C° 3.2 mm 3 m/s 741 mmHg 93%
09:00 +12°C° 3.2 mm 2 m/s 741 mmHg 92%
10:00 +13°C° 0.3 mm 2 m/s 741 mmHg 88%
11:00 +13°C° 0.3 mm 2 m/s 741 mmHg 84%
12:00 +13°C° 0.3 mm 3 m/s 741 mmHg 80%
13:00 +13°C° 0.3 mm 3 m/s 741 mmHg 79%
14:00 +13°C° 0.3 mm 3 m/s 741 mmHg 77%
15:00 +13°C° 0.3 mm 3 m/s 741 mmHg 75%
16:00 +12°C° 0.1 mm 3 m/s 740 mmHg 77%
17:00 +13°C° 0.1 mm 2 m/s 740 mmHg 78%
18:00 +12°C° 0.1 mm 2 m/s 740 mmHg 80%
19:00 +10°C° 0 mm 2 m/s 740 mmHg 80%
20:00 +10°C° 0 mm 2 m/s 740 mmHg 80%
21:00 +10°C° 0 mm 1 m/s 739 mmHg 81%
22:00 +10°C° 0 mm 1 m/s 739 mmHg 82%
23:00 +10°C° 0 mm 1 m/s 738 mmHg 83%

4 Octobre, Dimanche

Heure Température Précipitation Vent Pression Humidité
00:00 +10°C° 0 mm 1 m/s 737 mmHg 84%
01:00 +10°C° 0.1 mm 2 m/s 737 mmHg 85%
02:00 +10°C° 0.1 mm 2 m/s 736 mmHg 85%
03:00 +10°C° 0.1 mm 2 m/s 735 mmHg 86%
04:00 +10°C° 0.2 mm 2 m/s 735 mmHg 87%
05:00 +10°C° 0.2 mm 2 m/s 735 mmHg 88%
06:00 +10°C° 0.2 mm 2 m/s 735 mmHg 88%
07:00 +10°C° 0.1 mm 2 m/s 735 mmHg 86%
08:00 +11°C° 0.1 mm 3 m/s 735 mmHg 84%
09:00 +12°C° 0.1 mm 3 m/s 734 mmHg 82%
10:00 +12°C° 0.2 mm 3 m/s 735 mmHg 80%
11:00 +12°C° 0.2 mm 3 m/s 735 mmHg 79%
12:00 +14°C° 0.2 mm 2 m/s 735 mmHg 77%
13:00 +13°C° 0.3 mm 3 m/s 735 mmHg 79%
14:00 +13°C° 0.3 mm 3 m/s 735 mmHg 81%
15:00 +12°C° 0.3 mm 3 m/s 735 mmHg 82%
16:00 +12°C° 0.1 mm 4 m/s 735 mmHg 84%
17:00 +12°C° 0.1 mm 4 m/s 735 mmHg 85%
18:00 +12°C° 0.1 mm 4 m/s 735 mmHg 86%
19:00 +12°C° 0.1 mm 4 m/s 735 mmHg 88%
20:00 +11°C° 0.1 mm 4 m/s 735 mmHg 89%
21:00 +11°C° 0.1 mm 4 m/s 736 mmHg 90%
22:00 +11°C° 0.1 mm 4 m/s 735 mmHg 91%
23:00 +11°C° 0.1 mm 4 m/s 735 mmHg 92%
Voir plus